Tracking 29892 objects as of 21-Nov-2024
HD Live streaming from Space Station
objects crossing your sky now

DMSP 5D-2 F13 (USA 109)

Track DMSP 5D-2 F13 (USA 109) now!
10-day predictions
DMSP 5D-2 F13 (USA 109) is classified as:


NORAD ID: 23533
Int'l Code: 1995-015A
Perigee: 838.7 km
Apogee: 848.5 km
Inclination: 98.8 °
Period: 101.6 minutes
Semi major axis: 7214 km
RCS: Unknown
Launch date: March 24, 1995
Source: United States (US)
Launch site: AIR FORCE WESTERN TEST RANGE (AFWTR)

Near-polar orbits; investigate Earth's environment.
Your satellite tracking list
Your tracking list is empty




NASA's NSSDC Master Catalog

Two Line Element Set (TLE):
1 23533U 95015A   24325.50973459  .00000355  00000-0  19981-3 0  9998
2 23533  98.8203 333.6836 0006799   3.2912 150.1918 14.16723311531955
Source of the keplerian elements: McCants